Location: Bucaritos
(10.0779°N, 67.0369°W)
Time: 17:25:48
(UTC+00:00)

Centaur AC-72 - Pass Details

Date: 27 June 2022
Orbit: 1110 x 35245 km, 19.7° (Epoch: 08 August)

Event Time Altitude Azimuth Distance (km) Brightness Sun altitude
Rises 23:21:50 0° 284° (WNW) 4,253 7.9 -7.4°
Reaches altitude 10° 23:24:27 10° 282° (WNW) 3,020 6.6 -8.0°
Maximum altitude 23:30:06 70° 198° (SSW) 1,295 3.1 -9.2°
Enters shadow 23:39:09 13° 115° (ESE) 4,771 5.4 -11.2°
